カタログに戻る

FENGYUN 1C DEB

運用中SSO
NORAD 31553·DEBRIS·🇨🇳 China

打ち上げ May 10, 1999 から Taiyuan Satellite Launch Center

Loading…

次のパス (今後24時間)

TLE

最新Source: Space-Track

元期: Sep 14, 2026, 03:59 UTC

1 31553U 99025BYU 26257.16651660  .00002225  00000-0  83865-3 0  9999
2 31553  98.9882 326.6255 0028168  19.1174   9.1575 14.32258725998507

AllMySatでFENGYUN 1C DEBをリアルタイム追跡

Download on the App Store